This demonstration page uses our WeatherBlox Daily Observations layout. Learn more.

Left ArrowRight Arrow

36.19886, -115.1175

Hourly Observations for August 7, 2015

Temp ( °F °C ) Dew Point ( °F °C ) Humidity (%) Winds ( mph kmh ) Pressure ( in mb ) Visibility ( mi km ) Precip ( " mm )
12:53 am 00:53 Cloudy with Light Rain 76 24.4 64 17.8 67 67 E 10 17 29.90 1013 10 16 0.00 0.03
1:53 am 01:53 Cloudy 77 25 62 16.7 60 60 ENE 9 15 29.88 1012 10 16 0.00 0.03
2:53 am 02:53 Mostly Cloudy 76 24.4 62 16.7 62 62 S 9 15 29.87 1011 10 16 0.00 0.03
3:53 am 03:53 Mostly Cloudy 75 23.9 62 16.7 64 64 SE 6 9 29.87 1011 10 16 0.00 0.00
4:53 am 04:53 Mostly Cloudy 74 23.3 62 16.7 67 67 SSE 13 20 29.88 1012 10 16 0.00 0.00
5:53 am 05:53 Mostly Cloudy with Light Rain 73 22.8 64 17.8 74 74 S 5 7 29.88 1012 10 16 0.00 0.03
6:53 am 06:53 Mostly Cloudy 73 22.8 65 18.3 76 76 SSE 5 7 29.90 1013 10 16 0.00 0.03
7:53 am 07:53 Mostly Sunny 74 23.3 66 18.9 76 76 S 5 7 29.91 1013 10 16 0.00 0.00
8:53 am 08:53 Mostly Cloudy 77 25 65 18.3 66 66 S 7 11 29.91 1013 10 16 0.00 0.00
9:53 am 09:53 Sunny 80 26.7 63 17.2 56 56 SE 6 9 29.90 1012 10 16 0.00 0.00
10:53 am 10:53 Sunny 82 27.8 60 15.6 47 47 SSE 14 22 29.89 1012 10 16 0.00 0.00
11:53 am 11:53 Sunny 84 28.9 60 15.6 44 44 ESE 10 17 29.88 1012 10 16 0.00 0.00
12:53 pm 12:53 Mostly Sunny 87 30.6 61 16.1 42 42 E 8 13 29.85 1011 10 16 0.00 0.00
1:53 pm 13:53 Sunny 88 31.1 59 15 38 38 ESE 6 9 29.81 1009 10 16 0.00 0.00
2:53 pm 14:53 Sunny 91 32.8 59 15 34 34 ESE 9 15 29.77 1008 10 16 0.00 0.00
3:53 pm 15:53 Sunny 92 33.3 59 15 33 33 ESE 9 15 29.73 1007 10 16 0.00 0.00
4:53 pm 16:53 Sunny 93 33.9 59 15 32 32 SE 12 19 29.71 1006 10 16 0.00 0.00
5:53 pm 17:53 Sunny 93 33.9 58 14.4 31 31 ESE 13 20 29.70 1006 10 16 0.00 0.00
6:53 pm 18:53 Sunny 96 35.6 29 -1.7 9 9 W 8 13 29.70 1006 10 16 0.00 0.00
7:53 pm 19:53 Clear 95 35 31 -0.6 10 10 W 5 7 29.70 1006 10 16 0.00 0.00
8:53 pm 20:53 Clear 92 33.3 32 0 12 12 W 5 7 29.72 1006 10 16 0.00 0.00
9:53 pm 21:53 Clear 90 32.2 28 -2.2 11 11 W 8 13 29.74 1007 10 16 0.00 0.00
10:53 pm 22:53 Clear 88 31.1 19 -7.2 8 8 SW 5 7 29.76 1008 10 16 0.00 0.00
11:53 pm 23:53 Clear 86 30 24 -4.4 10 10 SE 9 15 29.77 1008 10 16 0.00 0.00

Powered by AerisWeather